Year,Month,Day,Hour,Minute,Value (Times are PST for windgust in km/hr)
2015,06,12,00,00,35.40
2015,06,12,00,03,43.50
2015,06,12,00,04,43.50
2015,06,12,00,05,43.50
2015,06,12,00,06,43.50
2015,06,12,00,07,43.50
2015,06,12,00,08,43.50
2015,06,12,00,09,43.50
2015,06,12,00,10,43.50
2015,06,12,00,11,43.50
2015,06,12,00,12,43.50
2015,06,12,00,13,43.50
2015,06,12,00,14,43.50
2015,06,12,00,15,43.50
2015,06,12,00,16,43.50
2015,06,12,00,17,43.50
2015,06,12,00,18,43.50
2015,06,12,00,19,43.50
2015,06,12,00,20,43.50
2015,06,12,00,21,43.50
2015,06,12,00,22,43.50
2015,06,12,00,23,43.50
2015,06,12,00,24,43.50
2015,06,12,00,25,43.50
2015,06,12,00,26,43.50
2015,06,12,00,27,43.50
2015,06,12,00,28,43.50
2015,06,12,00,29,43.50
2015,06,12,00,30,43.50
2015,06,12,00,33,46.70
2015,06,12,00,34,46.70
2015,06,12,00,35,46.70
2015,06,12,00,36,46.70
2015,06,12,00,37,46.70
2015,06,12,00,38,46.70
2015,06,12,00,39,46.70
2015,06,12,00,40,46.70
2015,06,12,00,41,46.70
2015,06,12,00,42,46.70
2015,06,12,00,43,46.70
2015,06,12,00,44,46.70
2015,06,12,00,45,46.70
2015,06,12,00,46,46.70
2015,06,12,00,47,46.70
2015,06,12,00,48,46.70
2015,06,12,00,49,46.70
2015,06,12,00,50,46.70
2015,06,12,00,51,46.70
2015,06,12,00,52,46.70
2015,06,12,00,53,46.70
2015,06,12,00,54,46.70
2015,06,12,00,55,46.70
2015,06,12,00,56,46.70
2015,06,12,00,57,46.70
2015,06,12,00,58,46.70
2015,06,12,00,59,46.70
2015,06,12,01,00,46.70
2015,06,12,01,02,53.10
2015,06,12,01,03,53.10
2015,06,12,01,04,53.10
2015,06,12,01,05,53.10
2015,06,12,01,06,53.10
2015,06,12,01,07,53.10
2015,06,12,01,08,53.10
2015,06,12,01,09,53.10
2015,06,12,01,10,53.10
2015,06,12,01,11,53.10
2015,06,12,01,12,53.10
2015,06,12,01,13,53.10
2015,06,12,01,14,53.10
2015,06,12,01,15,53.10
2015,06,12,01,16,53.10
2015,06,12,01,17,53.10
2015,06,12,01,18,53.10
2015,06,12,01,19,53.10
2015,06,12,01,20,53.10
2015,06,12,01,21,53.10
2015,06,12,01,22,53.10
2015,06,12,01,23,53.10
2015,06,12,01,24,53.10
2015,06,12,01,25,53.10
2015,06,12,01,26,53.10
2015,06,12,01,27,53.10
2015,06,12,01,28,53.10
2015,06,12,01,29,53.10
2015,06,12,01,30,53.10
2015,06,12,01,34,54.70
2015,06,12,01,35,54.70
2015,06,12,01,36,54.70
2015,06,12,01,37,54.70
2015,06,12,01,38,54.70
2015,06,12,01,39,54.70
2015,06,12,01,40,54.70
2015,06,12,01,41,54.70
2015,06,12,01,42,54.70
2015,06,12,01,43,54.70
2015,06,12,01,44,54.70
2015,06,12,01,45,54.70
2015,06,12,01,46,54.70
2015,06,12,01,47,54.70
2015,06,12,01,48,54.70
2015,06,12,01,49,54.70
2015,06,12,01,50,54.70
2015,06,12,01,51,54.70
2015,06,12,01,52,54.70
2015,06,12,01,53,54.70
2015,06,12,01,54,54.70
2015,06,12,01,55,54.70
2015,06,12,01,56,54.70
2015,06,12,01,57,54.70
2015,06,12,01,58,54.70
2015,06,12,01,59,54.70
2015,06,12,02,00,54.70
2015,06,12,02,02,48.30
2015,06,12,02,03,48.30
2015,06,12,02,04,48.30
2015,06,12,02,05,48.30
2015,06,12,02,06,48.30
2015,06,12,02,07,48.30
2015,06,12,02,08,48.30
2015,06,12,02,09,48.30
2015,06,12,02,10,48.30
2015,06,12,02,11,48.30
2015,06,12,02,12,48.30
2015,06,12,02,13,48.30
2015,06,12,02,14,48.30
2015,06,12,02,15,48.30
2015,06,12,02,16,48.30
2015,06,12,02,17,48.30
2015,06,12,02,18,48.30
2015,06,12,02,19,48.30
2015,06,12,02,20,48.30
2015,06,12,02,21,48.30
2015,06,12,02,22,48.30
2015,06,12,02,23,48.30
2015,06,12,02,24,48.30
2015,06,12,02,25,48.30
2015,06,12,02,26,48.30
2015,06,12,02,27,48.30
2015,06,12,02,28,48.30
2015,06,12,02,29,48.30
2015,06,12,02,30,48.30
2015,06,12,02,32,53.10
2015,06,12,02,33,53.10
2015,06,12,02,34,53.10
2015,06,12,02,35,53.10
2015,06,12,02,36,53.10
2015,06,12,02,37,53.10
2015,06,12,02,38,53.10
2015,06,12,02,39,53.10
2015,06,12,02,40,53.10
2015,06,12,02,41,53.10
2015,06,12,02,42,53.10
2015,06,12,02,43,53.10
2015,06,12,02,44,53.10
2015,06,12,02,45,53.10
2015,06,12,02,46,53.10
2015,06,12,02,47,53.10
2015,06,12,02,48,53.10
2015,06,12,02,49,53.10
2015,06,12,02,50,53.10
2015,06,12,02,51,53.10
2015,06,12,02,52,53.10
2015,06,12,02,53,53.10
2015,06,12,02,54,53.10
2015,06,12,02,55,53.10
2015,06,12,02,56,53.10
2015,06,12,02,57,53.10
2015,06,12,02,58,53.10
2015,06,12,02,59,53.10
2015,06,12,03,00,53.10
2015,06,12,03,02,56.30
2015,06,12,03,03,56.30
2015,06,12,03,04,56.30
2015,06,12,03,05,56.30
2015,06,12,03,06,56.30
2015,06,12,03,07,56.30
2015,06,12,03,08,56.30
2015,06,12,03,09,56.30
2015,06,12,03,10,56.30
2015,06,12,03,11,56.30
2015,06,12,03,12,56.30
2015,06,12,03,13,56.30
2015,06,12,03,14,56.30
2015,06,12,03,15,56.30
2015,06,12,03,16,56.30
2015,06,12,03,17,56.30
2015,06,12,03,18,56.30
2015,06,12,03,19,56.30
2015,06,12,03,20,56.30
2015,06,12,03,21,56.30
2015,06,12,03,22,56.30
2015,06,12,03,23,56.30
2015,06,12,03,24,56.30
2015,06,12,03,25,56.30
2015,06,12,03,26,56.30
2015,06,12,03,27,56.30
2015,06,12,03,28,56.30
2015,06,12,03,29,56.30
2015,06,12,03,30,56.30
2015,06,12,03,33,61.20
2015,06,12,03,34,61.20
2015,06,12,03,35,61.20
2015,06,12,03,36,61.20
2015,06,12,03,37,61.20
2015,06,12,03,38,61.20
2015,06,12,03,39,61.20
2015,06,12,03,40,61.20
2015,06,12,03,41,61.20
2015,06,12,03,42,61.20
2015,06,12,03,43,61.20
2015,06,12,03,44,61.20
2015,06,12,03,45,61.20
2015,06,12,03,46,61.20
2015,06,12,03,47,61.20
2015,06,12,03,48,61.20
2015,06,12,03,49,61.20
2015,06,12,03,50,61.20
2015,06,12,03,51,61.20
2015,06,12,03,52,61.20
2015,06,12,03,53,61.20
2015,06,12,03,54,61.20
2015,06,12,03,55,61.20
2015,06,12,03,56,61.20
2015,06,12,03,57,61.20
2015,06,12,03,58,61.20
2015,06,12,03,59,61.20
2015,06,12,04,00,61.20
2015,06,12,04,02,62.80
2015,06,12,04,03,62.80
2015,06,12,04,04,62.80
2015,06,12,04,05,62.80
2015,06,12,04,06,62.80
2015,06,12,04,07,62.80
2015,06,12,04,08,62.80
2015,06,12,04,09,62.80
2015,06,12,04,10,62.80
2015,06,12,04,11,62.80
2015,06,12,04,12,62.80
2015,06,12,04,13,62.80
2015,06,12,04,14,62.80
2015,06,12,04,15,62.80
2015,06,12,04,16,62.80
2015,06,12,04,17,62.80
2015,06,12,04,18,62.80
2015,06,12,04,19,62.80
2015,06,12,04,20,62.80
2015,06,12,04,21,62.80
2015,06,12,04,22,62.80
2015,06,12,04,23,62.80
2015,06,12,04,24,62.80
2015,06,12,04,25,62.80
2015,06,12,04,26,62.80
2015,06,12,04,27,62.80
2015,06,12,04,28,62.80
2015,06,12,04,29,62.80
2015,06,12,04,30,62.80
2015,06,12,04,33,66.00
2015,06,12,04,34,66.00
2015,06,12,04,35,66.00
2015,06,12,04,36,66.00
2015,06,12,04,37,66.00
2015,06,12,04,38,66.00
2015,06,12,04,39,66.00
2015,06,12,04,40,66.00
2015,06,12,04,41,66.00
2015,06,12,04,42,66.00
2015,06,12,04,43,66.00
2015,06,12,04,44,66.00
2015,06,12,04,45,66.00
2015,06,12,04,46,66.00
2015,06,12,04,47,66.00
2015,06,12,04,48,66.00
2015,06,12,04,49,66.00
2015,06,12,04,50,66.00
2015,06,12,04,51,66.00
2015,06,12,04,52,66.00
2015,06,12,04,53,66.00
2015,06,12,04,54,66.00
2015,06,12,04,55,66.00
2015,06,12,04,56,66.00
2015,06,12,04,57,66.00
2015,06,12,04,58,66.00
2015,06,12,04,59,66.00
2015,06,12,05,00,66.00
2015,06,12,05,03,66.00
2015,06,12,05,04,66.00
2015,06,12,05,05,66.00
2015,06,12,05,06,66.00
2015,06,12,05,07,66.00
2015,06,12,05,08,66.00
2015,06,12,05,09,66.00
2015,06,12,05,10,66.00
2015,06,12,05,11,66.00
2015,06,12,05,12,66.00
2015,06,12,05,13,66.00
2015,06,12,05,14,66.00
2015,06,12,05,15,66.00
2015,06,12,05,16,66.00
2015,06,12,05,17,66.00
2015,06,12,05,18,66.00
2015,06,12,05,19,66.00
2015,06,12,05,20,66.00
2015,06,12,05,21,66.00
2015,06,12,05,22,66.00
2015,06,12,05,23,66.00
2015,06,12,05,24,66.00
2015,06,12,05,25,66.00
2015,06,12,05,26,66.00
2015,06,12,05,27,66.00
2015,06,12,05,28,66.00
2015,06,12,05,29,66.00
2015,06,12,05,30,66.00
2015,06,12,05,33,67.60
2015,06,12,05,34,67.60
2015,06,12,05,35,67.60
2015,06,12,05,36,67.60
2015,06,12,05,37,67.60
2015,06,12,05,38,67.60
2015,06,12,05,39,67.60
2015,06,12,05,40,67.60
2015,06,12,05,41,67.60
2015,06,12,05,42,67.60
2015,06,12,05,43,67.60
2015,06,12,05,44,67.60
2015,06,12,05,45,67.60
2015,06,12,05,46,67.60
2015,06,12,05,47,67.60
2015,06,12,05,48,67.60
2015,06,12,05,49,67.60
2015,06,12,05,50,67.60
2015,06,12,05,51,67.60
2015,06,12,05,52,67.60
2015,06,12,05,53,67.60
2015,06,12,05,54,67.60
2015,06,12,05,55,67.60
2015,06,12,05,56,67.60
2015,06,12,05,57,67.60
2015,06,12,05,58,67.60
2015,06,12,05,59,67.60
2015,06,12,06,00,67.60
2015,06,12,06,03,67.60
2015,06,12,06,04,67.60
2015,06,12,06,05,67.60
2015,06,12,06,06,67.60
2015,06,12,06,07,67.60
2015,06,12,06,08,67.60
2015,06,12,06,09,67.60
2015,06,12,06,10,67.60
2015,06,12,06,11,67.60
2015,06,12,06,12,67.60
2015,06,12,06,13,67.60
2015,06,12,06,14,67.60
2015,06,12,06,15,67.60
2015,06,12,06,16,67.60
2015,06,12,06,17,67.60
2015,06,12,06,18,67.60
2015,06,12,06,19,67.60
2015,06,12,06,20,67.60
2015,06,12,06,21,67.60
2015,06,12,06,22,67.60
2015,06,12,06,23,67.60
2015,06,12,06,24,67.60
2015,06,12,06,25,67.60
2015,06,12,06,26,67.60
2015,06,12,06,27,67.60
2015,06,12,06,28,67.60
2015,06,12,06,29,67.60
2015,06,12,06,30,67.60
2015,06,12,06,33,66.00
2015,06,12,06,34,66.00
2015,06,12,06,35,66.00
2015,06,12,06,36,66.00
2015,06,12,06,37,66.00
2015,06,12,06,38,66.00
2015,06,12,06,39,66.00
2015,06,12,06,40,66.00
2015,06,12,06,41,66.00
2015,06,12,06,42,66.00
2015,06,12,06,43,66.00
2015,06,12,06,44,66.00
2015,06,12,06,45,66.00
2015,06,12,06,46,66.00
2015,06,12,06,47,66.00
2015,06,12,06,48,66.00
2015,06,12,06,49,66.00
2015,06,12,06,50,66.00
2015,06,12,06,51,66.00
2015,06,12,06,52,66.00
2015,06,12,06,53,66.00
2015,06,12,06,54,66.00
2015,06,12,06,55,66.00
2015,06,12,06,56,66.00
2015,06,12,06,57,66.00
2015,06,12,06,58,66.00
2015,06,12,06,59,66.00
2015,06,12,07,00,66.00
2015,06,12,07,03,67.60
2015,06,12,07,04,67.60
2015,06,12,07,05,67.60
2015,06,12,07,06,67.60
2015,06,12,07,07,67.60
2015,06,12,07,08,67.60
2015,06,12,07,09,67.60
2015,06,12,07,10,67.60
2015,06,12,07,11,67.60
2015,06,12,07,12,67.60
2015,06,12,07,13,67.60
2015,06,12,07,14,67.60
2015,06,12,07,15,67.60
2015,06,12,07,16,67.60
2015,06,12,07,17,67.60
2015,06,12,07,18,67.60
2015,06,12,07,19,67.60
2015,06,12,07,20,67.60
2015,06,12,07,21,67.60
2015,06,12,07,22,67.60
2015,06,12,07,23,67.60
2015,06,12,07,24,67.60
2015,06,12,07,25,67.60
2015,06,12,07,26,67.60
2015,06,12,07,27,67.60
2015,06,12,07,28,67.60
2015,06,12,07,29,67.60
2015,06,12,07,30,67.60
2015,06,12,07,33,67.60
2015,06,12,07,34,67.60
2015,06,12,07,35,67.60
2015,06,12,07,36,67.60
2015,06,12,07,37,67.60
2015,06,12,07,38,67.60
2015,06,12,07,39,67.60
2015,06,12,07,40,67.60
2015,06,12,07,41,67.60
2015,06,12,07,42,67.60
2015,06,12,07,43,67.60
2015,06,12,07,44,67.60
2015,06,12,07,45,67.60
2015,06,12,07,46,67.60
2015,06,12,07,47,67.60
2015,06,12,07,48,67.60
2015,06,12,07,49,67.60
2015,06,12,07,50,67.60
2015,06,12,07,51,67.60
2015,06,12,07,52,67.60
2015,06,12,07,53,67.60
2015,06,12,07,54,67.60
2015,06,12,07,55,67.60
2015,06,12,07,56,67.60
2015,06,12,07,57,67.60
2015,06,12,07,58,67.60
2015,06,12,07,59,67.60
2015,06,12,08,00,67.60
2015,06,12,08,03,64.40
2015,06,12,08,04,64.40
2015,06,12,08,05,64.40
2015,06,12,08,06,64.40
2015,06,12,08,07,64.40
2015,06,12,08,08,64.40
2015,06,12,08,09,64.40
2015,06,12,08,10,64.40
2015,06,12,08,11,64.40
2015,06,12,08,12,64.40
2015,06,12,08,13,64.40
2015,06,12,08,14,64.40
2015,06,12,08,15,64.40
2015,06,12,08,16,64.40
2015,06,12,08,17,64.40
2015,06,12,08,18,64.40
2015,06,12,08,19,64.40
2015,06,12,08,20,64.40
2015,06,12,08,21,64.40
2015,06,12,08,22,64.40
2015,06,12,08,23,64.40
2015,06,12,08,24,64.40
2015,06,12,08,25,64.40
2015,06,12,08,26,64.40
2015,06,12,08,27,64.40
2015,06,12,08,28,64.40
2015,06,12,08,29,64.40
2015,06,12,08,30,64.40
2015,06,12,08,33,57.90
2015,06,12,08,34,57.90
2015,06,12,08,35,57.90
2015,06,12,08,36,57.90
2015,06,12,08,37,57.90
2015,06,12,08,38,57.90
2015,06,12,08,39,57.90
2015,06,12,08,40,57.90
2015,06,12,08,41,57.90
2015,06,12,08,42,57.90
2015,06,12,08,43,57.90
2015,06,12,08,44,57.90
2015,06,12,08,45,57.90
2015,06,12,08,46,57.90
2015,06,12,08,47,57.90
2015,06,12,08,48,57.90
2015,06,12,08,49,57.90
2015,06,12,08,50,57.90
2015,06,12,08,51,57.90
2015,06,12,08,52,57.90
2015,06,12,08,53,57.90
2015,06,12,08,54,57.90
2015,06,12,08,55,57.90
2015,06,12,08,56,57.90
2015,06,12,08,57,57.90
2015,06,12,08,58,57.90
2015,06,12,08,59,57.90
2015,06,12,09,00,57.90
2015,06,12,09,02,57.90
2015,06,12,09,03,57.90
2015,06,12,09,04,57.90
2015,06,12,09,05,57.90
2015,06,12,09,06,57.90
2015,06,12,09,07,57.90
2015,06,12,09,08,57.90
2015,06,12,09,09,57.90
2015,06,12,09,10,57.90
2015,06,12,09,11,57.90
2015,06,12,09,12,57.90
2015,06,12,09,13,57.90
2015,06,12,09,14,57.90
2015,06,12,09,15,57.90
2015,06,12,09,16,57.90
2015,06,12,09,17,57.90
2015,06,12,09,18,57.90
2015,06,12,09,19,57.90
2015,06,12,09,20,57.90
2015,06,12,09,21,57.90
2015,06,12,09,22,57.90
2015,06,12,09,23,57.90
2015,06,12,09,24,57.90
2015,06,12,09,25,57.90
2015,06,12,09,26,57.90
2015,06,12,09,27,57.90
2015,06,12,09,28,57.90
2015,06,12,09,29,57.90
2015,06,12,09,30,57.90
2015,06,12,09,33,56.30
2015,06,12,09,34,56.30
2015,06,12,09,35,56.30
2015,06,12,09,36,56.30
2015,06,12,09,37,56.30
2015,06,12,09,38,56.30
2015,06,12,09,39,56.30
2015,06,12,09,40,56.30
2015,06,12,09,41,56.30
2015,06,12,09,42,56.30
2015,06,12,09,43,56.30
2015,06,12,09,44,56.30
2015,06,12,09,45,56.30
2015,06,12,09,46,56.30
2015,06,12,09,47,56.30
2015,06,12,09,48,56.30
2015,06,12,09,49,56.30
2015,06,12,09,50,56.30
2015,06,12,09,51,56.30
2015,06,12,09,52,56.30
2015,06,12,09,53,56.30
2015,06,12,09,54,56.30
2015,06,12,09,55,56.30
2015,06,12,09,56,56.30
2015,06,12,09,57,56.30
2015,06,12,09,58,56.30
2015,06,12,09,59,56.30
2015,06,12,10,00,56.30
2015,06,12,10,02,54.70
2015,06,12,10,03,54.70
2015,06,12,10,04,54.70
2015,06,12,10,05,54.70
2015,06,12,10,06,54.70
2015,06,12,10,07,54.70
2015,06,12,10,08,54.70
2015,06,12,10,09,54.70
2015,06,12,10,10,54.70
2015,06,12,10,11,54.70
2015,06,12,10,12,54.70
2015,06,12,10,13,54.70
2015,06,12,10,14,54.70
2015,06,12,10,15,54.70
2015,06,12,10,16,54.70
2015,06,12,10,17,54.70
2015,06,12,10,18,54.70
2015,06,12,10,19,54.70
2015,06,12,10,20,54.70
2015,06,12,10,21,54.70
2015,06,12,10,22,54.70
2015,06,12,10,23,54.70
2015,06,12,10,24,54.70
2015,06,12,10,25,54.70
2015,06,12,10,26,54.70
2015,06,12,10,27,54.70
2015,06,12,10,28,54.70
2015,06,12,10,29,54.70
2015,06,12,10,30,54.70
2015,06,12,10,31,54.70
2015,06,12,10,32,54.70
2015,06,12,10,33,54.70
2015,06,12,10,34,54.70
2015,06,12,10,35,54.70
2015,06,12,10,36,54.70
2015,06,12,10,37,54.70
2015,06,12,10,38,54.70
2015,06,12,10,39,54.70
2015,06,12,10,40,54.70
2015,06,12,10,41,54.70
2015,06,12,10,42,54.70
2015,06,12,10,43,54.70
2015,06,12,10,44,54.70
2015,06,12,10,45,54.70
2015,06,12,10,46,54.70
2015,06,12,10,47,54.70
2015,06,12,10,48,54.70
2015,06,12,10,49,54.70
2015,06,12,10,50,54.70
2015,06,12,10,51,54.70
2015,06,12,10,52,54.70
2015,06,12,10,53,54.70
2015,06,12,10,54,54.70
2015,06,12,10,55,54.70
2015,06,12,10,56,54.70
2015,06,12,10,57,54.70
2015,06,12,10,58,54.70
2015,06,12,10,59,54.70
2015,06,12,11,00,54.70
2015,06,12,11,03,49.90
2015,06,12,11,04,49.90
2015,06,12,11,05,49.90
2015,06,12,11,06,49.90
2015,06,12,11,07,49.90
2015,06,12,11,08,49.90
2015,06,12,11,09,49.90
2015,06,12,11,10,49.90
2015,06,12,11,11,49.90
2015,06,12,11,12,49.90
2015,06,12,11,13,49.90
2015,06,12,11,14,49.90
2015,06,12,11,15,49.90
2015,06,12,11,16,49.90
2015,06,12,11,17,49.90
2015,06,12,11,18,49.90
2015,06,12,11,19,49.90
2015,06,12,11,20,49.90
2015,06,12,11,21,49.90
2015,06,12,11,22,49.90
2015,06,12,11,23,49.90
2015,06,12,11,24,49.90
2015,06,12,11,25,49.90
2015,06,12,11,26,49.90
2015,06,12,11,27,49.90
2015,06,12,11,28,49.90
2015,06,12,11,29,49.90
2015,06,12,11,30,49.90
2015,06,12,11,32,40.20
2015,06,12,11,33,40.20
2015,06,12,11,34,40.20
2015,06,12,11,35,40.20
2015,06,12,11,36,40.20
2015,06,12,11,37,40.20
2015,06,12,11,38,40.20
2015,06,12,11,39,40.20
2015,06,12,11,40,40.20
2015,06,12,11,41,40.20
2015,06,12,11,42,40.20
2015,06,12,11,43,40.20
2015,06,12,11,44,40.20
2015,06,12,11,45,40.20
2015,06,12,11,46,40.20
2015,06,12,11,47,40.20
2015,06,12,11,48,40.20
2015,06,12,11,49,40.20
2015,06,12,11,50,40.20
2015,06,12,11,51,40.20
2015,06,12,11,52,40.20
2015,06,12,11,53,40.20
2015,06,12,11,54,40.20
2015,06,12,11,55,40.20
2015,06,12,11,56,40.20
2015,06,12,11,57,40.20
2015,06,12,11,58,40.20
2015,06,12,11,59,40.20
2015,06,12,12,00,40.20
2015,06,12,12,02,46.70
2015,06,12,12,03,46.70
2015,06,12,12,04,46.70
2015,06,12,12,05,46.70
2015,06,12,12,06,46.70
2015,06,12,12,07,46.70
2015,06,12,12,08,46.70
2015,06,12,12,09,46.70
2015,06,12,12,10,46.70
2015,06,12,12,11,46.70
2015,06,12,12,12,46.70
2015,06,12,12,13,46.70
2015,06,12,12,14,46.70
2015,06,12,12,15,46.70
2015,06,12,12,16,46.70
2015,06,12,12,17,46.70
2015,06,12,12,18,46.70
2015,06,12,12,19,46.70
2015,06,12,12,20,46.70
2015,06,12,12,21,46.70
2015,06,12,12,22,46.70
2015,06,12,12,23,46.70
2015,06,12,12,24,46.70
2015,06,12,12,25,46.70
2015,06,12,12,26,46.70
2015,06,12,12,27,46.70
2015,06,12,12,28,46.70
2015,06,12,12,29,46.70
2015,06,12,12,30,46.70
2015,06,12,12,32,48.30
2015,06,12,12,33,48.30
2015,06,12,12,34,48.30
2015,06,12,12,35,48.30
2015,06,12,12,36,48.30
2015,06,12,12,37,48.30
2015,06,12,12,38,48.30
2015,06,12,12,39,48.30
2015,06,12,12,40,48.30
2015,06,12,12,41,48.30
2015,06,12,12,42,48.30
2015,06,12,12,43,48.30
2015,06,12,12,44,48.30
2015,06,12,12,45,48.30
2015,06,12,12,46,48.30
2015,06,12,12,47,48.30
2015,06,12,12,48,48.30
2015,06,12,12,49,48.30
2015,06,12,12,50,48.30
2015,06,12,12,51,48.30
2015,06,12,12,52,48.30
2015,06,12,12,53,48.30
2015,06,12,12,54,48.30
2015,06,12,12,55,48.30
2015,06,12,12,56,48.30
2015,06,12,12,57,48.30
2015,06,12,12,58,48.30
2015,06,12,12,59,48.30
2015,06,12,13,00,48.30
2015,06,12,13,02,51.50
2015,06,12,13,03,51.50
2015,06,12,13,04,51.50
2015,06,12,13,05,51.50
2015,06,12,13,06,51.50
2015,06,12,13,07,51.50
2015,06,12,13,08,51.50
2015,06,12,13,09,51.50
2015,06,12,13,10,51.50
2015,06,12,13,11,51.50
2015,06,12,13,12,51.50
2015,06,12,13,13,51.50
2015,06,12,13,14,51.50
2015,06,12,13,15,51.50
2015,06,12,13,16,51.50
2015,06,12,13,17,51.50
2015,06,12,13,18,51.50
2015,06,12,13,19,51.50
2015,06,12,13,20,51.50
2015,06,12,13,21,51.50
2015,06,12,13,22,51.50
2015,06,12,13,23,51.50
2015,06,12,13,24,51.50
2015,06,12,13,25,51.50
2015,06,12,13,26,51.50
2015,06,12,13,27,51.50
2015,06,12,13,28,51.50
2015,06,12,13,29,51.50
2015,06,12,13,30,51.50
2015,06,12,13,33,45.10
2015,06,12,13,34,45.10
2015,06,12,13,35,45.10
2015,06,12,13,36,45.10
2015,06,12,13,37,45.10
2015,06,12,13,38,45.10
2015,06,12,13,39,45.10
2015,06,12,13,40,45.10
2015,06,12,13,41,45.10
2015,06,12,13,42,45.10
2015,06,12,13,43,45.10
2015,06,12,13,44,45.10
2015,06,12,13,45,45.10
2015,06,12,13,46,45.10
2015,06,12,13,47,45.10
2015,06,12,13,48,45.10
2015,06,12,13,49,45.10
2015,06,12,13,50,45.10
2015,06,12,13,51,45.10
2015,06,12,13,52,45.10
2015,06,12,13,53,45.10
2015,06,12,13,54,45.10
2015,06,12,13,55,45.10
2015,06,12,13,56,45.10
2015,06,12,13,57,45.10
2015,06,12,13,58,45.10
2015,06,12,13,59,45.10
2015,06,12,14,00,45.10
2015,06,12,14,03,56.30
2015,06,12,14,04,56.30
2015,06,12,14,05,56.30
2015,06,12,14,06,56.30
2015,06,12,14,07,56.30
2015,06,12,14,08,56.30
2015,06,12,14,09,56.30
2015,06,12,14,10,56.30
2015,06,12,14,11,56.30
2015,06,12,14,12,56.30
2015,06,12,14,13,56.30
2015,06,12,14,14,56.30
2015,06,12,14,15,56.30
2015,06,12,14,16,56.30
2015,06,12,14,17,56.30
2015,06,12,14,18,56.30
2015,06,12,14,19,56.30
2015,06,12,14,20,56.30
2015,06,12,14,21,56.30
2015,06,12,14,22,56.30
2015,06,12,14,23,56.30
2015,06,12,14,24,56.30
2015,06,12,14,25,56.30
2015,06,12,14,26,56.30
2015,06,12,14,27,56.30
2015,06,12,14,28,56.30
2015,06,12,14,29,56.30
2015,06,12,14,30,56.30
2015,06,12,14,33,43.50
2015,06,12,14,34,43.50
2015,06,12,14,35,43.50
2015,06,12,14,36,43.50
2015,06,12,14,37,43.50
2015,06,12,14,38,43.50
2015,06,12,14,39,43.50
2015,06,12,14,40,43.50
2015,06,12,14,41,43.50
2015,06,12,14,42,43.50
2015,06,12,14,43,43.50
2015,06,12,14,44,43.50
2015,06,12,14,45,43.50
2015,06,12,14,46,43.50
2015,06,12,14,47,43.50
2015,06,12,14,48,43.50
2015,06,12,14,49,43.50
2015,06,12,14,50,43.50
2015,06,12,14,51,43.50
2015,06,12,14,52,43.50
2015,06,12,14,53,43.50
2015,06,12,14,54,43.50
2015,06,12,14,55,43.50
2015,06,12,14,56,43.50
2015,06,12,14,57,43.50
2015,06,12,14,58,43.50
2015,06,12,14,59,43.50
2015,06,12,15,00,43.50
2015,06,12,15,01,37.00
2015,06,12,15,02,37.00
2015,06,12,15,03,37.00
2015,06,12,15,04,37.00
2015,06,12,15,05,37.00
2015,06,12,15,06,37.00
2015,06,12,15,07,37.00
2015,06,12,15,08,37.00
2015,06,12,15,09,37.00
2015,06,12,15,10,37.00
2015,06,12,15,11,37.00
2015,06,12,15,12,37.00
2015,06,12,15,13,37.00
2015,06,12,15,14,37.00
2015,06,12,15,15,37.00
2015,06,12,15,16,37.00
2015,06,12,15,17,37.00
2015,06,12,15,18,37.00
2015,06,12,15,19,37.00
2015,06,12,15,20,37.00
2015,06,12,15,21,37.00
2015,06,12,15,22,37.00
2015,06,12,15,23,37.00
2015,06,12,15,24,37.00
2015,06,12,15,25,37.00
2015,06,12,15,26,37.00
2015,06,12,15,27,37.00
2015,06,12,15,28,37.00
2015,06,12,15,29,37.00
2015,06,12,15,30,37.00
2015,06,12,15,33,32.20
2015,06,12,15,34,32.20
2015,06,12,15,35,32.20
2015,06,12,15,36,32.20
2015,06,12,15,37,32.20
2015,06,12,15,38,32.20
2015,06,12,15,39,32.20
2015,06,12,15,40,32.20
2015,06,12,15,41,32.20
2015,06,12,15,42,32.20
2015,06,12,15,43,32.20
2015,06,12,15,44,32.20
2015,06,12,15,45,32.20
2015,06,12,15,46,32.20
2015,06,12,15,47,32.20
2015,06,12,15,48,32.20
2015,06,12,15,49,32.20
2015,06,12,15,50,32.20
2015,06,12,15,51,32.20
2015,06,12,15,52,32.20
2015,06,12,15,53,32.20
2015,06,12,15,54,32.20
2015,06,12,15,55,32.20
2015,06,12,15,56,32.20
2015,06,12,15,57,32.20
2015,06,12,15,58,32.20
2015,06,12,15,59,32.20
2015,06,12,16,00,32.20
2015,06,12,16,03,38.60
2015,06,12,16,04,38.60
2015,06,12,16,05,38.60
2015,06,12,16,06,38.60
2015,06,12,16,07,38.60
2015,06,12,16,08,38.60
2015,06,12,16,09,38.60
2015,06,12,16,10,38.60
2015,06,12,16,11,38.60
2015,06,12,16,12,38.60
2015,06,12,16,13,38.60
2015,06,12,16,14,38.60
2015,06,12,16,15,38.60
2015,06,12,16,16,38.60
2015,06,12,16,17,38.60
2015,06,12,16,18,38.60
2015,06,12,16,19,38.60
2015,06,12,16,20,38.60
2015,06,12,16,21,38.60
2015,06,12,16,22,38.60
2015,06,12,16,23,38.60
2015,06,12,16,24,38.60
2015,06,12,16,25,38.60
2015,06,12,16,26,38.60
2015,06,12,16,27,38.60
2015,06,12,16,28,38.60
2015,06,12,16,29,38.60
2015,06,12,16,30,38.60
2015,06,12,16,32,43.50
2015,06,12,16,33,43.50
2015,06,12,16,34,43.50
2015,06,12,16,35,43.50
2015,06,12,16,36,43.50
2015,06,12,16,37,43.50
2015,06,12,16,38,43.50
2015,06,12,16,39,43.50
2015,06,12,16,40,43.50
2015,06,12,16,41,43.50
2015,06,12,16,42,43.50
2015,06,12,16,43,43.50
2015,06,12,16,44,43.50
2015,06,12,16,45,43.50
2015,06,12,16,46,43.50
2015,06,12,16,47,43.50
2015,06,12,16,48,43.50
2015,06,12,16,49,43.50
2015,06,12,16,50,43.50
2015,06,12,16,51,43.50
2015,06,12,16,52,43.50
2015,06,12,16,53,43.50
2015,06,12,16,54,43.50
2015,06,12,16,55,43.50
2015,06,12,16,56,43.50
2015,06,12,16,57,43.50
2015,06,12,16,58,43.50
2015,06,12,16,59,43.50
2015,06,12,17,00,43.50
2015,06,12,17,03,40.20
2015,06,12,17,04,40.20
2015,06,12,17,05,40.20
2015,06,12,17,06,40.20
2015,06,12,17,07,40.20
2015,06,12,17,08,40.20
2015,06,12,17,09,40.20
2015,06,12,17,10,40.20
2015,06,12,17,11,40.20
2015,06,12,17,12,40.20
2015,06,12,17,13,40.20
2015,06,12,17,14,40.20
2015,06,12,17,15,40.20
2015,06,12,17,16,40.20
2015,06,12,17,17,40.20
2015,06,12,17,18,40.20
2015,06,12,17,19,40.20
2015,06,12,17,20,40.20
2015,06,12,17,21,40.20
2015,06,12,17,22,40.20
2015,06,12,17,23,40.20
2015,06,12,17,24,40.20
2015,06,12,17,25,40.20
2015,06,12,17,26,40.20
2015,06,12,17,27,40.20
2015,06,12,17,28,40.20
2015,06,12,17,29,40.20
2015,06,12,17,30,40.20
2015,06,12,17,33,41.80
2015,06,12,17,34,41.80
2015,06,12,17,35,41.80
2015,06,12,17,36,41.80
2015,06,12,17,37,41.80
2015,06,12,17,38,41.80
2015,06,12,17,39,41.80
2015,06,12,17,40,41.80
2015,06,12,17,41,41.80
2015,06,12,17,42,41.80
2015,06,12,17,43,41.80
2015,06,12,17,44,41.80
2015,06,12,17,45,41.80
2015,06,12,17,46,41.80
2015,06,12,17,47,41.80
2015,06,12,17,48,41.80
2015,06,12,17,49,41.80
2015,06,12,17,50,41.80
2015,06,12,17,51,41.80
2015,06,12,17,52,41.80
2015,06,12,17,53,41.80
2015,06,12,17,54,41.80
2015,06,12,17,55,41.80
2015,06,12,17,56,41.80
2015,06,12,17,57,41.80
2015,06,12,17,58,41.80
2015,06,12,17,59,41.80
2015,06,12,18,00,41.80
2015,06,12,18,02,30.60
2015,06,12,18,03,30.60
2015,06,12,18,04,30.60
2015,06,12,18,05,30.60
2015,06,12,18,06,30.60
2015,06,12,18,07,30.60
2015,06,12,18,08,30.60
2015,06,12,18,09,30.60
2015,06,12,18,10,30.60
2015,06,12,18,11,30.60
2015,06,12,18,12,30.60
2015,06,12,18,13,30.60
2015,06,12,18,14,30.60
2015,06,12,18,15,30.60
2015,06,12,18,16,30.60
2015,06,12,18,17,30.60